[[{"header":{"parameterUnit":"m.s-1","parameterCategory":1,"la1":30.2991,"la2":30.254,"lo1":-89.0895,"lo2":-89.0444,"dy":0.0017,"dx":0.0017,"nx":28,"ny":28,"refTime":"2025-03-26T21:00:00:Z","depth":0,"parameterNumber":2,"parameterNumberName":"U-component_of_WINDS"},"data":[0,0,0,0,0,0,0,0,0,0,0,0,0,0,0,0,0,0,0,0,0,0,0,0,0,0,0,0,0,0,0,0,0,0,0,0,0,0,0,0,0,0,0,0,0,0,0,0,0,0,0,0,0,0,0,0,0,0,0.444,0.4442,0,0.4557,0.4558,0.4559,0.4598,0.4598,0.4597,0.4597,0.472,0.4723,0.4727,0,0,0,0,0,0,0,0,0,0,0,0,0,0.4254,0.4257,0.444,0.4442,0.4443,0.4556,0.4558,0.456,0.4599,0.4598,0.4597,0.4597,0.4718,0.4723,0.4727,0,0,0,0,0,0,0,0,0,0,0,0,0,0.4349,0.4258,0.444,0.4476,0.4481,0.4556,0.4558,0.456,0.4599,0.4598,0.4597,0.4597,0.4717,0.4722,0.4728,0.4777,0,0,0.4745,0.4747,0,0,0,0,0,0,0,0,0.4344,0.4356,0.447,0.4474,0.4479,0.4562,0.4537,0.4633,0.4599,0.4554,0.4597,0.4596,0.4668,0.4678,0.4701,0.4783,0.4788,0.4745,0.4749,0.4751,0.4753,0,0,0,0,0,0,0,0.4337,0.4351,0.4486,0.4471,0.4477,0.4487,0.45,0.4555,0.4614,0.4558,0.4561,0.4574,0.4671,0.4696,0.4704,0.479,0.4745,0.475,0.4754,0.4756,0.4915,0.4916,0,0,0,0,0,0,0.4324,0.4345,0.4483,0.449,0.4408,0.4491,0.4505,0.4536,0.4613,0.4624,0.4574,0.4575,0.4686,0.4698,0.4709,0.477,0.4751,0.4756,0.476,0.4914,0.4915,0.4916,0,0,0,0,0,0,0.432,0.4336,0.4478,0.4418,0.4437,0.4495,0.453,0.4539,0.4564,0.4626,0.4637,0.4589,0.4686,0.4701,0.4759,0.4775,0.4759,0.4764,0.4913,0.4914,0.4916,0.4893,0,0,0,0,0,0,0.4314,0.4334,0.4353,0.4419,0.444,0.4526,0.4531,0.4542,0.4573,0.4575,0.4643,0.4653,0.4687,0.475,0.4764,0.4782,0.4768,0.4912,0.4914,0.4915,0.4893,0.4894,0.4894,0,0,0,0,0,0.4307,0.4343,0.4354,0.437,0.4465,0.4527,0.4539,0.4576,0.4574,0.4594,0.4633,0.4651,0.477,0.4756,0.4772,0.4792,0.4911,0.4913,0.4915,0.4892,0.4893,0.4894,0,0,0,0,0,0,0.428,0.4353,0.4365,0.4423,0.4468,0.4533,0.4559,0.4576,0.4624,0.4624,0.4669,0.4684,0.4738,0.4771,0.4753,0.4842,0.4842,0.4847,0.4819,0.482,0.4821,0.4812,0.4773,0,0,0,0,0,0.428,0.4324,0.4385,0.443,0.4452,0.4501,0.453,0.4554,0.4603,0.4623,0.4666,0.4714,0.4762,0.4793,0.4841,0.4897,0.4912,0.4919,0.4919,0.492,0.4924,0.4955,0.4958,0.4923,0.4923,0.4923,0,0,0.4283,0.4328,0.4352,0.4426,0.4464,0.4507,0.4517,0.4564,0.4597,0.463,0.4687,0.472,0.4776,0.4833,0.486,0.4862,0.4937,0.4922,0.4922,0.4926,0.4957,0.496,0.4963,0.4924,0.4924,0.4923,0,0,0.4309,0.4347,0.4388,0.4425,0.4481,0.4513,0.4523,0.4585,0.4608,0.4665,0.469,0.473,0.4812,0.4851,0.4881,0.4918,0.4936,0.4932,0.4937,0.4966,0.4969,0.4971,0.4984,0.4988,0.4936,0.4936,0.4936,0,0.4304,0.4371,0.4408,0.4452,0.4483,0.4513,0.4555,0.4589,0.4658,0.4679,0.468,0.4782,0.4822,0.4887,0.4896,0.492,0.4932,0.4925,0.4965,0.4968,0.4971,0.4984,0.4988,0.4935,0.4935,0.4936,0.4936,0,0.4362,0.4408,0.4434,0.4498,0.4532,0.4575,0.4619,0.4649,0.4669,0.4701,0.4758,0.4807,0.4864,0.4881,0.4903,0.4949,0.4948,0.4956,0.4957,0.4973,0.4986,0.4991,0.4934,0.4934,0.4935,0.4935,0,0,0.4377,0.4458,0.4467,0.4496,0.4559,0.4595,0.4638,0.4692,0.4717,0.4763,0.4801,0.4868,0.4875,0.4909,0.4935,0.4961,0.4986,0.4966,0.4968,0.4967,0.5038,0.5032,0.5037,0.4997,0.4998,0.4999,0.5033,0,0.441,0.4489,0.4522,0.4585,0.4627,0.4654,0.4692,0.4735,0.4765,0.4805,0.484,0.4886,0.4892,0.4913,0.4939,0.4977,0.5001,0.4975,0.5033,0.5035,0.5018,0.5044,0.5038,0.5068,0.5039,0.504,0.504,0,0.4461,0.4505,0.4572,0.4627,0.4646,0.468,0.4731,0.4769,0.4817,0.4837,0.4874,0.4898,0.4944,0.4941,0.5005,0.4987,0.5012,0.5034,0.5036,0.5044,0.5039,0.5051,0.5079,0.5083,0.5048,0.5048,0.5047,0,0.4463,0.454,0.4589,0.4613,0.4679,0.4702,0.4731,0.4778,0.4808,0.4853,0.4872,0.4923,0.495,0.4989,0.5025,0.5019,0.5086,0.5086,0.5104,0.5103,0.5118,0.5116,0.5149,0.5134,0.5134,0.5134,0.5134,0,0.4498,0.4538,0.4591,0.4621,0.4666,0.4704,0.4747,0.4778,0.4819,0.4856,0.4884,0.4918,0.4964,0.5004,0.5033,0.5081,0.5094,0.5111,0.5119,0.5109,0.5107,0.5127,0.5126,0.5135,0.5135,0.5134,0.5134,0,0.4509,0.4547,0.4602,0.4659,0.4674,0.4705,0.4754,0.4784,0.4815,0.4861,0.4874,0.4922,0.4971,0.501,0.5074,0.5093,0.5144,0.5152,0.5127,0.5131,0.5147,0.5144,0.5194,0.5202,0.5181,0.5181,0.5181,0,0.4529,0.456,0.4619,0.4645,0.4673,0.4715,0.4744,0.4782,0.4812,0.4867,0.4891,0.494,0.4982,0.5058,0.5099,0.5147,0.5157,0.5171,0.5165,0.5153,0.5157,0.5155,0.5157,0.5172,0.5172,0.5172,0.5172,0,0.456,0.4576,0.4617,0.4664,0.4698,0.4738,0.4778,0.4798,0.4842,0.4874,0.4923,0.4955,0.5018,0.5067,0.5119,0.5149,0.5168,0.5173,0.518,0.5171,0.5154,0.5163,0.5128,0.5172,0.5172,0.5172,0.5172,0.5172,0.4576,0.4604,0.4649,0.4694,0.4727,0.4763,0.4794,0.4827,0.4868,0.4921,0.4941,0.499,0.5036,0.5108,0.5138,0.5177,0.5179,0.5189,0.5192,0.5194,0.5192,0.5147,0.5187,0.5187,0.5187,0.5187,0.5187,0,0.4608,0.4637,0.4678,0.4732,0.4766,0.4779,0.4823,0.4851,0.4894,0.4935,0.4974,0.5029,0.5075,0.5119,0.5168,0.5191,0.52,0.5202,0.5201,0.5208,0.5188,0.5177,0.5194,0.5193,0.5193,0.5193,0.5193,0.5193,0.4628,0.4676,0.4697,0.476,0.479,0.4838,0.4862,0.4895,0.4927,0.4986,0.5025,0.5052,0.5094,0.5145,0.5188,0.52,0.5216,0.5216,0.523,0.521,0.5209,0.5208,0.5198,0.5219,0.5219,0.5247,0.5247,0.5247]},{"header":{"parameterUnit":"m.s-1","parameterCategory":1,"la1":30.2991,"la2":30.254,"lo1":-89.0895,"lo2":-89.0444,"dy":0.0017,"dx":0.0017,"nx":28,"ny":28,"refTime":"2025-03-26T21:00:00:Z","depth":0,"parameterNumber":3,"parameterNumberName":"V-component_of_WINDS"},"data":[0,0,0,0,0,0,0,0,0,0,0,0,0,0,0,0,0,0,0,0,0,0,0,0,0,0,0,0,0,0,0,0,0,0,0,0,0,0,0,0,0,0,0,0,0,0,0,0,0,0,0,0,0,0,0,0,0,0,2.9445,2.9445,0,2.9407,2.9406,2.9406,2.9386,2.9386,2.9386,2.9386,2.9345,2.9344,2.9343,0,0,0,0,0,0,0,0,0,0,0,0,0,2.9498,2.9497,2.9445,2.9445,2.9444,2.9407,2.9406,2.9406,2.9386,2.9386,2.9386,2.9386,2.9345,2.9344,2.9342,0,0,0,0,0,0,0,0,0,0,0,0,0,2.9469,2.9497,2.9445,2.943,2.9428,2.9407,2.9406,2.9406,2.9386,2.9386,2.9386,2.9386,2.9345,2.9344,2.9342,2.9333,0,0,2.9337,2.9337,0,0,0,0,0,0,0,0,2.9471,2.9467,2.9433,2.9431,2.9429,2.9401,2.941,2.9381,2.9386,2.9402,2.9386,2.9386,2.9363,2.936,2.9353,2.9331,2.9329,2.9337,2.9336,2.9335,2.9335,0,0,0,0,0,0,0,2.9473,2.9468,2.943,2.9432,2.943,2.9424,2.942,2.9404,2.9383,2.9401,2.9399,2.9395,2.9362,2.9355,2.9352,2.9328,2.9337,2.9336,2.9335,2.9334,2.9293,2.9293,0,0,0,0,0,0,2.9477,2.947,2.9431,2.9429,2.945,2.9423,2.9418,2.941,2.9383,2.9379,2.9395,2.9394,2.9357,2.9354,2.935,2.9335,2.9335,2.9334,2.9333,2.9293,2.9293,2.9293,0,0,0,0,0,0,2.9479,2.9474,2.9433,2.9449,2.9443,2.9422,2.9413,2.9409,2.9402,2.9379,2.9375,2.9391,2.9357,2.9353,2.9337,2.9334,2.9333,2.9332,2.9293,2.9293,2.9293,2.9306,0,0,0,0,0,0,2.948,2.9475,2.9472,2.9449,2.9443,2.9421,2.9413,2.9409,2.9399,2.9398,2.9375,2.9371,2.9357,2.9339,2.9335,2.9331,2.933,2.9293,2.9293,2.9293,2.9306,2.9307,2.9307,0,0,0,0,0,2.9482,2.9478,2.9472,2.9467,2.9439,2.9421,2.9417,2.9402,2.9399,2.9395,2.938,2.9371,2.9335,2.9338,2.9333,2.9329,2.9293,2.9293,2.9293,2.9306,2.9307,2.9307,0,0,0,0,0,0,2.9501,2.9475,2.9468,2.9456,2.9441,2.9418,2.9413,2.9404,2.9388,2.9388,2.9369,2.9364,2.9349,2.9337,2.9341,2.9316,2.9313,2.9312,2.9324,2.9325,2.9326,2.9328,2.9329,0,0,0,0,0,2.9503,2.9492,2.9469,2.9461,2.9454,2.9434,2.9426,2.9416,2.9399,2.9392,2.9376,2.9359,2.9343,2.9334,2.9318,2.9304,2.9297,2.9299,2.9299,2.93,2.9299,2.9287,2.9287,2.9292,2.9292,2.9292,0,0,2.9509,2.9493,2.9487,2.9464,2.9451,2.9438,2.9429,2.9417,2.9406,2.939,2.9373,2.9361,2.934,2.9325,2.9317,2.9315,2.9296,2.9299,2.93,2.9299,2.9287,2.9286,2.9286,2.9291,2.9291,2.9291,0,0,2.9512,2.95,2.949,2.9477,2.9457,2.9444,2.9442,2.9419,2.941,2.9393,2.938,2.9367,2.9341,2.9326,2.9315,2.931,2.93,2.9305,2.9308,2.9297,2.9297,2.9296,2.9292,2.9291,2.9304,2.9304,2.9304,0,2.9521,2.9502,2.9487,2.9474,2.9463,2.9448,2.9437,2.9424,2.94,2.9392,2.939,2.9355,2.9341,2.932,2.9318,2.9311,2.9306,2.9308,2.9298,2.9298,2.9297,2.9292,2.9291,2.9305,2.9305,2.9305,2.9305,0,2.9513,2.95,2.9495,2.9472,2.946,2.9449,2.9429,2.9419,2.9409,2.9395,2.9377,2.9358,2.9338,2.9332,2.9322,2.9309,2.9307,2.9302,2.9298,2.9297,2.9293,2.9291,2.9306,2.9306,2.9305,2.9305,0,0,2.9528,2.9495,2.9493,2.9481,2.9457,2.9446,2.9432,2.9412,2.9403,2.9386,2.9373,2.935,2.9344,2.9331,2.9319,2.931,2.9303,2.9305,2.9304,2.9304,2.9284,2.9288,2.9286,2.9297,2.9297,2.9296,2.9285,0,2.9527,2.9503,2.9487,2.9468,2.9455,2.9438,2.9426,2.9409,2.9395,2.938,2.9364,2.9347,2.9342,2.9334,2.9324,2.9307,2.9299,2.9307,2.9282,2.9282,2.9287,2.9284,2.9289,2.9279,2.9284,2.9283,2.9283,0,2.9522,2.9506,2.9486,2.9461,2.9454,2.9444,2.9422,2.9409,2.9388,2.9378,2.9363,2.935,2.9333,2.933,2.9305,2.931,2.9299,2.9288,2.9288,2.9284,2.9282,2.9279,2.9276,2.9274,2.9281,2.9281,2.9281,0,2.9533,2.9505,2.9489,2.948,2.9451,2.9443,2.943,2.9409,2.9397,2.9378,2.937,2.9349,2.9337,2.932,2.9301,2.9301,2.9276,2.9273,2.9266,2.9266,2.9261,2.9261,2.9254,2.9256,2.9256,2.9256,2.9256,0,2.9532,2.952,2.9493,2.9483,2.9468,2.9449,2.9435,2.942,2.9401,2.9387,2.9371,2.9357,2.9334,2.9316,2.9301,2.928,2.9276,2.9266,2.9261,2.9266,2.9267,2.9258,2.9258,2.9255,2.9255,2.9255,2.9255,0,2.9542,2.9523,2.9504,2.9478,2.9471,2.9461,2.9437,2.9425,2.941,2.9391,2.9386,2.9361,2.934,2.9319,2.929,2.928,2.9258,2.9254,2.9266,2.9263,2.9257,2.9257,2.9243,2.9239,2.9244,2.9244,2.9244,0,2.9542,2.9532,2.9504,2.9494,2.9481,2.9465,2.9452,2.9432,2.9419,2.9392,2.9383,2.9361,2.9341,2.9307,2.9285,2.9262,2.9256,2.9253,2.9253,2.9257,2.9254,2.9254,2.9252,2.9253,2.9253,2.9253,2.9253,0,2.9544,2.9535,2.9518,2.9497,2.9482,2.9465,2.9446,2.9438,2.9414,2.9399,2.9377,2.9362,2.9332,2.9308,2.9282,2.9267,2.9255,2.9253,2.925,2.9254,2.9261,2.9255,2.9265,2.9254,2.9253,2.9253,2.9253,2.9253,2.9548,2.9538,2.9516,2.9496,2.948,2.9463,2.945,2.9432,2.9414,2.9388,2.9377,2.9354,2.9329,2.9293,2.9278,2.9258,2.9255,2.9251,2.925,2.9249,2.9248,2.9265,2.9253,2.9253,2.9253,2.9253,2.9253,0,2.9548,2.9532,2.9515,2.9489,2.9473,2.9464,2.9442,2.9429,2.9409,2.9388,2.9369,2.9342,2.9318,2.9294,2.9268,2.9257,2.925,2.9251,2.9251,2.9247,2.9254,2.9258,2.9256,2.9256,2.9256,2.9256,2.9256,2.9256,2.9546,2.9527,2.9515,2.9487,2.9471,2.9449,2.9437,2.9419,2.9402,2.9373,2.9353,2.9338,2.9314,2.9286,2.9263,2.9257,2.9247,2.9248,2.924,2.9247,2.9247,2.9247,2.9251,2.9247,2.9247,2.9234,2.9234,2.9234]}]]